Location: Bosmont
(49.7318°N, 3.8587°E)
Time: 00:01:03
(UTC+00:00)

Cosmos 1417 Rocket - Pass Details

Date: 08 February 2023
Orbit: 951 x 999 km, 83.0° (Epoch: 21 March)

Event Time Altitude Azimuth Distance (km) Brightness Sun altitude
Rises 18:17:42 0° 184° (S) 3,669 7.6 -14.3°
Reaches altitude 10° 18:20:13 10° 183° (S) 2,718 6.9 -14.8°
Maximum altitude 18:26:26 82° 97° (E) 983 4.4 -15.8°
Drops below altitude 10° 18:32:38 10° 11° (N) 2,705 6.7 -16.8°
Sets 18:35:08 0° 11° (N) 3,651 7.4 -17.2°
